• în Republica Moldova
  • Lista ţărilor
  • Pe 7 zile
  • Temperatura apei
  • Hartă satelitară
  • Meteo pe hartă
  • Widget-uri
  • user-avatar
    Intrare

    Meteo pe oră la Lenkoran

    Astăzi, 26 Martie, Duminică

    Timp Temperatura Precipitaţii Vânt Presiune Umiditate
    00:00 -1°C° 0 mm 2 m/s 630 mmHg 57%
    01:00 -1°C° 0 mm 2 m/s 630 mmHg 56%
    02:00 -1°C° 0 mm 2 m/s 630 mmHg 54%
    03:00 -2°C° 0 mm 2 m/s 630 mmHg 52%
    04:00 -2°C° 0 mm 2 m/s 630 mmHg 52%
    05:00 -2°C° 0 mm 2 m/s 630 mmHg 52%
    06:00 -1°C° 0 mm 2 m/s 631 mmHg 52%
    07:00 +2°C° 0 mm 2 m/s 631 mmHg 48%
    08:00 +3°C° 0 mm 3 m/s 632 mmHg 44%
    09:00 +5°C° 0 mm 3 m/s 632 mmHg 41%
    10:00 +7°C° 0 mm 3 m/s 632 mmHg 41%
    11:00 +7°C° 0 mm 4 m/s 632 mmHg 41%
    12:00 +8°C° 0 mm 4 m/s 632 mmHg 42%
    13:00 +8°C° 0 mm 4 m/s 632 mmHg 42%
    14:00 +8°C° 0 mm 4 m/s 632 mmHg 42%
    15:00 +9°C° 0 mm 5 m/s 631 mmHg 42%
    16:00 +8°C° 0 mm 4 m/s 631 mmHg 45%
    17:00 +6°C° 0 mm 4 m/s 631 mmHg 48%
    18:00 +5°C° 0 mm 4 m/s 631 mmHg 52%
    19:00 +5°C° 0 mm 3 m/s 631 mmHg 50%
    20:00 +4°C° 0 mm 3 m/s 631 mmHg 49%
    21:00 +4°C° 0 mm 3 m/s 631 mmHg 47%
    22:00 +3°C° 0 mm 3 m/s 631 mmHg 46%
    23:00 +3°C° 0 mm 3 m/s 631 mmHg 46%

    Mâine, 27 Martie, Luni

    Timp Temperatura Precipitaţii Vânt Presiune Umiditate
    00:00 +3°C° 0 mm 3 m/s 631 mmHg 45%
    01:00 +3°C° 0 mm 3 m/s 631 mmHg 46%
    02:00 +2°C° 0 mm 3 m/s 630 mmHg 47%
    03:00 +2°C° 0 mm 3 m/s 630 mmHg 48%
    04:00 +2°C° 0 mm 3 m/s 630 mmHg 50%
    05:00 +2°C° 0 mm 3 m/s 630 mmHg 52%
    06:00 +2°C° 0 mm 3 m/s 630 mmHg 54%
    07:00 +4°C° 0 mm 3 m/s 631 mmHg 51%
    08:00 +6°C° 0 mm 4 m/s 631 mmHg 47%
    09:00 +8°C° 0 mm 4 m/s 632 mmHg 43%
    10:00 +10°C° 0 mm 4 m/s 632 mmHg 42%
    11:00 +10°C° 0 mm 5 m/s 632 mmHg 40%
    12:00 +12°C° 0 mm 5 m/s 632 mmHg 38%
    13:00 +13°C° 0 mm 5 m/s 631 mmHg 38%
    14:00 +13°C° 0 mm 6 m/s 631 mmHg 39%
    15:00 +13°C° 0 mm 6 m/s 631 mmHg 39%
    16:00 +10°C° 0 mm 5 m/s 630 mmHg 42%
    17:00 +9°C° 0 mm 5 m/s 630 mmHg 44%
    18:00 +8°C° 0 mm 5 m/s 630 mmHg 47%
    19:00 +7°C° 0 mm 4 m/s 630 mmHg 47%
    20:00 +6°C° 0 mm 4 m/s 630 mmHg 48%
    21:00 +6°C° 0 mm 4 m/s 630 mmHg 48%
    22:00 +5°C° 0 mm 4 m/s 630 mmHg 51%
    23:00 +5°C° 0 mm 4 m/s 630 mmHg 54%

    Poimâine, 28 Martie, Marţi

    Timp Temperatura Precipitaţii Vânt Presiune Umiditate
    00:00 +5°C° 0 mm 4 m/s 630 mmHg 57%
    01:00 +4°C° 0 mm 4 m/s 630 mmHg 58%
    02:00 +4°C° 0 mm 4 m/s 630 mmHg 59%
    03:00 +4°C° 0 mm 4 m/s 629 mmHg 60%
    04:00 +4°C° 0 mm 4 m/s 630 mmHg 61%
    05:00 +4°C° 0 mm 4 m/s 630 mmHg 62%
    06:00 +3°C° 0 mm 4 m/s 630 mmHg 62%
    07:00 +3°C° 0 mm 5 m/s 631 mmHg 61%
    08:00 +5°C° 0 mm 5 m/s 632 mmHg 59%
    09:00 +6°C° 0 mm 5 m/s 633 mmHg 57%
    10:00 +7°C° 0 mm 5 m/s 633 mmHg 57%
    11:00 +7°C° 0 mm 5 m/s 633 mmHg 57%
    12:00 +8°C° 0 mm 5 m/s 633 mmHg 57%
    13:00 +7°C° 0,2 mm 5 m/s 633 mmHg 60%
    14:00 +7°C° 0,2 mm 4 m/s 633 mmHg 62%
    15:00 +7°C° 0,2 mm 4 m/s 632 mmHg 65%
    16:00 +6°C° 0,1 mm 4 m/s 632 mmHg 67%
    17:00 +5°C° 0,1 mm 3 m/s 632 mmHg 70%
    18:00 +5°C° 0,1 mm 3 m/s 632 mmHg 72%
    19:00 +4°C° 0 mm 3 m/s 632 mmHg 75%
    20:00 +5°C° 0 mm 2 m/s 632 mmHg 77%
    21:00 +4°C° 0 mm 2 m/s 632 mmHg 80%
    22:00 +4°C° 0 mm 2 m/s 632 mmHg 80%
    23:00 +4°C° 0 mm 2 m/s 632 mmHg 81%

    29 Martie, Miercuri

    Timp Temperatura Precipitaţii Vânt Presiune Umiditate
    00:00 +3°C° 0 mm 2 m/s 631 mmHg 81%
    01:00 +3°C° 0 mm 2 m/s 631 mmHg 81%
    02:00 +3°C° 0 mm 2 m/s 631 mmHg 80%
    03:00 +3°C° 0 mm 2 m/s 631 mmHg 80%
    04:00 +3°C° 0 mm 2 m/s 631 mmHg 79%
    05:00 +3°C° 0 mm 2 m/s 631 mmHg 78%
    06:00 +2°C° 0 mm 2 m/s 631 mmHg 77%
    07:00 +4°C° 0 mm 3 m/s 632 mmHg 69%
    08:00 +7°C° 0 mm 3 m/s 633 mmHg 61%
    09:00 +8°C° 0 mm 4 m/s 633 mmHg 53%
    10:00 +8°C° 0 mm 4 m/s 634 mmHg 50%
    11:00 +10°C° 0 mm 4 m/s 634 mmHg 47%
    12:00 +11°C° 0 mm 4 m/s 634 mmHg 44%
    13:00 +11°C° 0 mm 3 m/s 634 mmHg 44%
    14:00 +11°C° 0 mm 3 m/s 634 mmHg 44%
    15:00 +11°C° 0 mm 3 m/s 633 mmHg 45%
    16:00 +10°C° 0 mm 3 m/s 633 mmHg 51%
    17:00 +8°C° 0 mm 2 m/s 633 mmHg 57%
    18:00 +6°C° 0 mm 2 m/s 633 mmHg 63%
    19:00 +5°C° 0 mm 2 m/s 634 mmHg 68%
    20:00 +5°C° 0 mm 1 m/s 634 mmHg 72%
    21:00 +4°C° 0 mm 1 m/s 635 mmHg 76%
    22:00 +4°C° 0 mm 1 m/s 635 mmHg 79%
    23:00 +3°C° 0 mm 1 m/s 635 mmHg 81%

    30 Martie, Joi

    Timp Temperatura Precipitaţii Vânt Presiune Umiditate
    00:00 +3°C° 0 mm 1 m/s 635 mmHg 83%
    01:00 +3°C° 0 mm 1 m/s 635 mmHg 85%
    02:00 +3°C° 0 mm 1 m/s 635 mmHg 86%
    03:00 +3°C° 0 mm 1 m/s 636 mmHg 87%
    04:00 +2°C° 0 mm 2 m/s 636 mmHg 88%
    05:00 +2°C° 0 mm 2 m/s 636 mmHg 88%
    06:00 +2°C° 0 mm 2 m/s 636 mmHg 89%
    07:00 +3°C° 0 mm 2 m/s 637 mmHg 84%
    08:00 +4°C° 0 mm 2 m/s 637 mmHg 79%
    09:00 +5°C° 0 mm 2 m/s 637 mmHg 75%
    10:00 +6°C° 0 mm 2 m/s 637 mmHg 71%
    11:00 +7°C° 0 mm 3 m/s 637 mmHg 67%
    12:00 +8°C° 0 mm 3 m/s 637 mmHg 63%
    13:00 +8°C° 0 mm 3 m/s 636 mmHg 63%
    14:00 +9°C° 0 mm 3 m/s 636 mmHg 62%
    15:00 +9°C° 0 mm 3 m/s 635 mmHg 61%
    16:00 +8°C° 0 mm 2 m/s 635 mmHg 66%
    17:00 +7°C° 0 mm 2 m/s 634 mmHg 71%
    18:00 +6°C° 0 mm 2 m/s 634 mmHg 76%
    19:00 +6°C° 0 mm 1 m/s 634 mmHg 77%
    20:00 +6°C° 0 mm 1 m/s 634 mmHg 78%
    21:00 +6°C° 0 mm 1 m/s 633 mmHg 80%
    22:00 +6°C° 0 mm 1 m/s 633 mmHg 78%
    23:00 +4°C° 0 mm 2 m/s 633 mmHg 77%

    31 Martie, Vineri

    Timp Temperatura Precipitaţii Vânt Presiune Umiditate
    00:00 +4°C° 0 mm 2 m/s 632 mmHg 75%
    01:00 +4°C° 0 mm 2 m/s 632 mmHg 74%
    02:00 +4°C° 0 mm 2 m/s 631 mmHg 72%
    03:00 +3°C° 0 mm 3 m/s 631 mmHg 71%
    04:00 +3°C° 0 mm 3 m/s 631 mmHg 71%
    05:00 +3°C° 0 mm 3 m/s 631 mmHg 70%
    06:00 +3°C° 0 mm 3 m/s 631 mmHg 70%
    07:00 +5°C° 0 mm 3 m/s 632 mmHg 63%
    08:00 +8°C° 0 mm 4 m/s 632 mmHg 56%
    09:00 +11°C° 0 mm 4 m/s 633 mmHg 49%
    10:00 +12°C° 0 mm 4 m/s 633 mmHg 47%
    11:00 +13°C° 0 mm 4 m/s 633 mmHg 45%
    12:00 +13°C° 0 mm 4 m/s 633 mmHg 43%
    13:00 +13°C° 0 mm 4 m/s 632 mmHg 44%
    14:00 +14°C° 0 mm 4 m/s 632 mmHg 45%
    15:00 +14°C° 0 mm 4 m/s 632 mmHg 46%
    16:00 +12°C° 0,1 mm 3 m/s 632 mmHg 52%
    17:00 +11°C° 0,1 mm 3 m/s 632 mmHg 59%
    18:00 +9°C° 0,1 mm 2 m/s 632 mmHg 65%
    19:00 +8°C° 0,1 mm 3 m/s 632 mmHg 70%
    20:00 +7°C° 0,1 mm 3 m/s 632 mmHg 74%
    21:00 +5°C° 0,1 mm 3 m/s 633 mmHg 79%
    22:00 +4°C° 0 mm 3 m/s 632 mmHg 79%
    23:00 +3°C° 0 mm 4 m/s 632 mmHg 79%
    Arată mai mult